Location: K�ln
(50.9455°N, 6.9544°E)
Time: 12:40:42
(UTC+01:00)

ISS - Pass Details

Date: 11 January 2018
Orbit: 402 x 407 km, 51.6° (Epoch: 18 January)

Event Time Altitude Azimuth Distance (km) Brightness Sun altitude
Exits shadow 07:13:57 16° 262° (W) 1,145 -2.1 -11.7°
Maximum altitude 07:15:52 28° 212° (SSW) 801 -2.5 -11.4°
Drops below altitude 10° 07:18:43 10° 152° (SSE) 1,463 -0.2 -11.0°
Sets 07:20:58 0° 140° (SE) 2,321 1.2 -10.6°
